Location: Makanda
(37.6176°N, 89.2090°W)
Time: 05:55:43
(UTC+00:00)

ARGOS - Pass Details

Date: 23 September 2019
Orbit: 821 x 834 km, 98.5° (Epoch: 23 October)

Event Time Altitude Azimuth Distance (km) Brightness Sun altitude
Exits shadow 02:25:22 63° 248° (WSW) 918 3.4 -29.8°
Maximum altitude 02:25:32 63° 259° (WSW) 915 3.4 -29.9°
Drops below altitude 10° 02:30:53 10° 340° (NNW) 2,436 6.1 -30.8°
Sets 02:33:17 0° 344° (NNW) 3,375 6.9 -31.2°
